Dati Storici

Data ora Umidita' aria (%) Temperatura aria (°C) Rad globale (W/m²) Gonioanemometro (°) Tacoanemometro (m/s) Pioggia (mm)
28-06-2020 06:10 97.7 % 21.443 16.79 1.415 0 0
28-06-2020 06:00 97.6 % 21.329 36.775 2.077 0 0
28-06-2020 05:50 97.6 % 21.465 38.586 2.122 0 0
28-06-2020 05:40 97.6 % 21.506 1.007 0.414 0 0
28-06-2020 05:30 97.7 % 21.643 33.904 0.991 0 0
28-06-2020 05:20 97.7 % 21.784 13.835 0.95 0 0
28-06-2020 05:10 97.7 % 22.077 2.757 0.268 0 0
28-06-2020 05:00 97.7 % 22.156 5.679 0.37 0 0
28-06-2020 04:50 97.7 % 22.161 330.927 -0.025 0 0
28-06-2020 04:40 97.7 % 22.131 16.872 -0.023 0 0
28-06-2020 04:30 97.7 % 21.877 332.064 -0.024 0 0
28-06-2020 04:20 97.7 % 21.844 277.193 -0.026 0 0
28-06-2020 04:10 97.7 % 21.842 18.803 -0.026 0 0
28-06-2020 04:00 97.7 % 21.726 58.442 -0.025 0 0
28-06-2020 03:50 97.7 % 21.738 45.251 -0.024 0 0
28-06-2020 03:40 97.7 % 21.562 43.102 -0.026 0 0
28-06-2020 03:30 97.7 % 21.542 93.186 -0.022 0 0
28-06-2020 03:20 97.7 % 21.553 85.926 -0.022 0 0
28-06-2020 03:10 97.6 % 21.663 63.697 -0.023 0 0
28-06-2020 03:00 97.7 % 21.925 17.525 -0.013 0 0

I dati sono presentati in modo automatico a scopo informativo. In seguito a verifica i dati possono subire modifiche o essere invalidati e non riportati negli archivi definitivi.